Regional Weather Roundup
Issued by NWS

Home | Current Version | Previous Version | Graphics & Text | Print | Product List | Glossary On
Versions: 1 2 3 4 5 6 7 8 9 10 11 12 13 14 15 16 17 18 19 20 21 22 23 24 25 26 27 28 29 30 31 32 33 34 35 36 37 38 39 40 41 42 43 44 45 46 47 48 49 50
000
ASUS43 KLMK 311310
RWRKY
KENTUCKY REGIONAL WEATHER ROUNDUP
NATIONAL WEATHER SERVICE LOUISVILLE KY
900 AM EDT FRI JUL 31 2015

NOTE "FAIR" INDICATES FEW OR NO CLOUDS BELOW 12,000 FEET
WITH NO SIGNIFICANT WEATHER AND/OR OBSTRUCTIONS TO VISIBILITY.

KYZ001>023-026-027-061>063-070>075-311400-
WESTERN AND SOUTH CENTRAL KENTUCKY

CITY           SKY/WX    TMP DP  RH WIND       PRES   REMARKS
PADUCAH        SUNNY     75  67  76 N6        30.11S
HENDERSON      SUNNY    N/A N/A N/A MISG        N/A
OWENSBORO      SUNNY     75  67  76 CALM      30.10S
HOPKINSVILLE   SUNNY     73  67  81 N5        30.10R
BOWLING GREEN  SUNNY     75  64  68 CALM      30.10S
GLASGOW        SUNNY    N/A N/A N/A CALM      30.10S
$$

KYZ024-025-028>034-038-045-046-053-311400-
NORTH CENTRAL KENTUCKY

CITY           SKY/WX    TMP DP  RH WIND       PRES   REMARKS
LOUISVILLE/SDF MOSUNNY   75  64  68 CALM      30.08S
LOUISVILLE/LOU SUNNY     74  65  73 CALM      30.09S
FORT KNOX      SUNNY     73  66  79 W1        30.08S
$$

KYZ035>037-039>044-047>052-055>060-089>105-311400-
NORTHEAST KENTUCKY

CITY           SKY/WX    TMP DP  RH WIND       PRES   REMARKS
LEXINGTON      SUNNY     71  63  75 W3        30.10R
COVINGTON      SUNNY     66  61  85 CALM      30.08R
FRANKFORT      SUNNY     71  64  78 CALM      30.09R
$$

KYZ054-064>069-076>088-106>120-311400-
SOUTHEAST KENTUCKY

CITY           SKY/WX    TMP DP  RH WIND       PRES   REMARKS
JACKSON        SUNNY     68  61  78 CALM      30.11R
LONDON         SUNNY     69  60  73 CALM      30.12R
SOMERSET       SUNNY     64  63  94 CALM      30.12S
MIDDLESBORO    CLOUDY    62  62  99 CALM      30.12S FOG
MONTICELLO     SUNNY     69  66  90 CALM      30.14R
$$



USA.gov is the U.S. government's official web portal to all federal, state and local government web resources and services.